Simultaneous Nadir Overpasses (SNOs) Predictions

Prediction of SNOs between GOES-17 and NOAA-20 Satellite Orbit:

Table of predicted SNOs for the next 14.0 days since TLE Epoch: 1/18/2020
Index Date Time (GOES-17) GOES-17 Lat,Lon NOAA-20 Lat,Lon Distance(km) Time Diff (sec)
1 01/18/2020 22:36:41 -0.03,-137.22 -0.13,-137.58 41.73 80
2 01/19/2020 22:15:17 -0.03,-137.22 0.91,-133.06 474.36 80
3 01/21/2020 10:39:45 0.04,-137.21 0.29,-138.32 127.25 80
4 01/22/2020 10:18:21 0.04,-137.20 -0.70,-133.79 388.36 80
5 01/23/2020 22:42:58 -0.05,-137.19 -0.50,-139.09 216.80 80
6 01/24/2020 22:21:35 -0.05,-137.19 0.55,-134.57 298.65 80
7 01/26/2020 10:46:03 0.06,-137.17 0.65,-139.83 303.62 80
8 01/27/2020 10:24:40 0.05,-137.16 -0.39,-135.31 211.54 80
9 01/28/2020 22:49:16 -0.06,-137.15 -0.86,-140.60 394.31 80
10 01/29/2020 22:27:52 -0.06,-137.14 0.19,-136.08 120.69 80
11 01/31/2020 10:52:21 0.07,-137.11 1.01,-141.35 482.21 80




NCC Satellite Simultaneous Nadir Overpasses (SNOs) Prediction Service
